Regional Weather Roundup
Issued by NWS

Home | Current Version | Previous Version | Text Only | Print | Product List | Glossary Off
Versions: 1 2 3 4 5 6 7 8 9 10 11 12 13 14 15 16 17 18 19 20 21 22 23 24 25 26 27 28 29 30 31 32 33 34 35 36 37 38 39 40 41 42 43 44 45 46 47 48 49 50

000
ASUS43 KDTX 250010
RWRMI
MICHIGAN HOURLY REGIONAL WEATHER ROUNDUP
NATIONAL WEATHER SERVICE DETROIT/PONTIAC MI
800 PM EDT SUN MAY 24 2015

NOTE: "FAIR" INDICATES FEW OR NO CLOUDS BELOW 12,000 FEET WITH NO
SIGNIFICANT WEATHER AND/OR OBSTRUCTION TO VISIBILITY.

MIZ047>049-052>055-059>063-066>070-074>076-081>083-250100-
SOUTHEAST LOWER MICHIGAN

CITY           SKY/WX    TMP DP  RH WIND       PRES   REMARKS
ADRIAN         MOCLDY    75  55  49 SE9       30.09F
6HR MIN TEMP:  75; 6HR MAX TEMP:  81;

ALMA           RAIN      64  60  86 NE5       30.10S
ANN ARBOR      CLOUDY    73  50  44 E8        30.10F
BAD AXE        CLOUDY    68  49  50 S5        30.13F
CARO           LGT RAIN  66  56  69 CALM      30.11F
DETROIT CITY   CLOUDY    72  49  44 SE10      30.12F
6HR MIN TEMP:  72; 6HR MAX TEMP:  78; 6HR PCP: TRACE;

DETROIT        CLOUDY    76  50  40 E6        30.12F
6HR MIN TEMP:  75; 6HR MAX TEMP:  79; 6HR PCP: TRACE;

FLINT          CLOUDY    71  55  56 E8        30.10F
6HR MIN TEMP:  71; 6HR MAX TEMP:  77; 6HR PCP: TRACE;

GROSSE ILE     CLOUDY    72  48  43 E6        30.10F
HILLSDALE      CLOUDY    78  54  43 SE5       30.08S
6HR MIN TEMP:  74; 6HR MAX TEMP:  80;

HOWELL         LGT RAIN  73  53  50 E7        30.09F
6HR MIN TEMP:  73; 6HR MAX TEMP:  77;


CITY           SKY/WX    TMP DP  RH WIND       PRES   REMARKS
JACKSON        CLOUDY    73  55  53 E12       30.08F
6HR MIN TEMP:  72; 6HR MAX TEMP:  75; 6HR PCP: TRACE;

LAMBERTVILLE   MOCLDY    72  52  49 E5        30.10F
LANSING        CLOUDY    71  57  61 E7        30.07F
6HR MIN TEMP:  71; 6HR MAX TEMP:  75; 6HR PCP: TRACE;

LAPEER         MOCLDY    68  51  54 SE5       30.12F
MASON          CLOUDY    69  55  59 E6        30.08F
MONROE         CLOUDY    70  50  49 E7        30.09F
MT. CLEMENS    CLOUDY    66  54  66 E6        30.11F
6HR MIN TEMP:  66; 6HR MAX TEMP:  76; 6HR PCP: TRACE;

PONTIAC        CLOUDY    73  50  44 E7        30.11F
6HR MIN TEMP:  72; 6HR MAX TEMP:  76; 6HR PCP: TRACE;

PORT HOPE        N/A     70  50  49 CALM      30.11F
6HR MIN TEMP:  63; 6HR MAX TEMP:  77;

PORT HURON     CLOUDY    68  55  64 E3        30.14F
TRI CITIES     LGT RAIN  68  55  63 NE3       30.11F
6HR MIN TEMP:  68; 6HR MAX TEMP:  79; 6HR PCP: TRACE;

MIDLAND        LGT RAIN  63  60  91 CALM      30.10S
TROY           CLOUDY    76  47  35 E5        30.14S
SAGINAW HB     LGT RAIN  68  52  56 E3        30.10S
$$
MIZ043>046-050>051-056>058-064>065-071>073-077>080-250100-
SOUTHWEST LOWER MICHIGAN

CITY           SKY/WX    TMP DP  RH WIND       PRES   REMARKS
BATTLE CREEK   MOCLDY    75  56  51 E9        30.04F
6HR MIN TEMP:  73; 6HR MAX TEMP:  77; 6HR PCP: TRACE;

BENTON HARBOR  CLOUDY    73  59  61 E6        29.98S
6HR MIN TEMP:  71; 6HR MAX TEMP:  76; 6HR PCP: TRACE;

BIG RAPIDS     RAIN      61  56  82 SE3       30.09F
6HR MIN TEMP:  61; 6HR MAX TEMP:  70; 6HR PCP:  0.05;

COLDWATER      PTCLDY    76  53  44 SE6       30.04F
6HR MIN TEMP:  71; 6HR MAX TEMP:  78;

FREMONT        LGT RAIN  60  57  91 E8        30.05F
HOLLAND        CLOUDY    70  56  61 E6        30.02F
6HR MIN TEMP:  69; 6HR MAX TEMP:  73; 6HR PCP: TRACE;

GRAND RAPIDS   LGT RAIN  70  55  59 E9        30.04F
6HR MIN TEMP:  70; 6HR MAX TEMP:  73; 6HR PCP: TRACE;

IONIA          CLOUDY    71  54  55 E8        30.05F
KALAMAZOO      PTSUNNY   75  56  51 E6        30.02F
6HR MIN TEMP:  73; 6HR MAX TEMP:  77; 6HR PCP: TRACE;

LUDINGTON      RAIN      61  57  88 E5        30.07S
6HR MIN TEMP:  60; 6HR MAX TEMP:  67; 6HR PCP:  0.22;

MARSHALL       CLOUDY    74  56  54 E9        30.05F
MOUNT PLEASANT RAIN      63  60  91 CALM      30.11R
6HR MIN TEMP:  63; 6HR MAX TEMP:  75; 6HR PCP:  0.01;

MUSKEGON       LGT RAIN  62  57  83 E10       30.04F
6HR MIN TEMP:  62; 6HR MAX TEMP:  69; 6HR PCP:  0.04;

SOUTH HAVEN    RAIN      67  62  85 E7        29.99F
$$
MIZ016>042-250100-
NORTHERN LOWER MICHIGAN

CITY           SKY/WX    TMP DP  RH WIND       PRES   REMARKS
ALPENA         CLOUDY    73  48  41 SW8       30.08R
6HR MIN TEMP:  73; 6HR MAX TEMP:  78; 6HR PCP: TRACE;

BEAVER ISLAND  CLOUDY    55  48  77 SW12      30.08S
6HR MIN TEMP:  55; 6HR MAX TEMP:  71;

BELLAIRE       LGT RAIN  65  53  64 S6        30.09R
6HR MIN TEMP:  65; 6HR MAX TEMP:  80;

CADILLAC         N/A     59  56  91 E3        30.10F
CHARLEVOIX     CLOUDY    62  50  63 SW10      30.10S
FRANKFORT      LGT RAIN  62  55  77 SE3       30.07F
GAYLORD        CLOUDY    66  48  52 S14       30.10S
6HR MIN TEMP:  66; 6HR MAX TEMP:  77;

GRAYLING       LGT RAIN  61  54  77 S5        30.13R
HARBOR SPRINGS CLOUDY    51  46  83 SW5       30.09S
HOUGHTON LAKE  LGT RAIN  60  56  86 SE3       30.12F
6HR MIN TEMP:  60; 6HR MAX TEMP:  76; 6HR PCP:  0.02;

MANISTEE       CLOUDY    61  55  82 SE8       30.07F
OSCODA         CLOUDY    69  50  51 SW8       30.10F
PELLSTON       CLOUDY    64  48  56 VRB3      30.09S
6HR MIN TEMP:  64; 6HR MAX TEMP:  79; 6HR PCP: TRACE;

ROGERS CITY    CLOUDY    63  46  54 CALM      30.09S
TRAVERSE CITY  LGT RAIN  62  56  80 CALM      30.09S
6HR MIN TEMP:  62; 6HR MAX TEMP:  79; 6HR PCP:  0.02;

$$
MIZ007>008-015-250100-
EASTERN UPPER MICHIGAN

CITY           SKY/WX    TMP DP  RH WIND       PRES   REMARKS
KINROSS        CLOUDY    64  48  55 SW8       30.06S
6HR MIN TEMP:  64; 6HR MAX TEMP:  77;

MACKINAC ISLAN CLOUDY    55  46  71 W6        30.08R
6HR MIN TEMP:  55; 6HR MAX TEMP:  70;

NEWBERRY       CLOUDY    63  49  61 SW16G28   30.04S
S. S. MARIE    CLOUDY    66  48  52 SW10G20   30.04F
6HR MIN TEMP:  66; 6HR MAX TEMP:  79;

MUNISING         N/A     70  52  52 S9        30.00R
6HR MIN TEMP:  61; 6HR MAX TEMP:  76;

$$
MIZ004>006-011>014-085-250100-
CENTRAL UPPER MICHIGAN

CITY           SKY/WX    TMP DP  RH WIND       PRES   REMARKS
MANISTIQUE     CLOUDY    53  48  82 SW8       30.06S
6HR MIN TEMP:  51; 6HR MAX TEMP:  60;

ESCANABA       CLOUDY    61  52  72 SW14G20   30.03S
6HR MIN TEMP:  61; 6HR MAX TEMP:  66;

MENOMINEE      CLOUDY    57  52  82 S7        30.04F
6HR MIN TEMP:  57; 6HR MAX TEMP:  72; 6HR PCP:  0.06;

SAWYER-GWINN   SUNNY     70  50  49 S21       30.01S
$$
MIZ001>003-009>011-084-250100-
WESTERN UPPER MICHIGAN

CITY           SKY/WX    TMP DP  RH WIND       PRES   REMARKS
IRON MOUNTAIN  LGT RAIN  62  53  72 S7        30.03R
6HR MIN TEMP:  62; 6HR MAX TEMP:  79; 6HR PCP: TRACE;

HOUGHTON       CLOUDY    67  46  47 E6        29.97F
6HR MIN TEMP:  67; 6HR MAX TEMP:  77;

COPPER HARBOR    N/A     66  47  50 CALM      29.96F
6HR MIN TEMP:  52; 6HR MAX TEMP:  68;

IRONWOOD       CLOUDY    66  52  59 S8        29.96R
6HR MIN TEMP:  66; 6HR MAX TEMP:  75;

$$

ABBREVIATIONS USED IN REMARKS
   TC - TEMPERATURE IN CELSIUS
  WCI - WIND CHILL INDEX
   HX - HEAT INDEX
  VSB - VISIBILITY




USA.gov is the U.S. government's official web portal to all federal, state and local government web resources and services.